When you browse on this site, cookies collect data to enhance your experience and personalize the content and advertising you see.
Visit our Privacy Policy to learn more. By continuing to use the site, you agree to this use of cookies and data.
  • Em Portugal
  • Lista de países
  • Para 7 dias
  • Temperatura da água
  • Mapas de satélite
  • Mapa do tempo
  • Widgets de tempo
  • user-avatar
    Iniciar Sessão

    Previsão horária em Piertanie

    Hoje, 23 Maio, Quinta-feira

    Tempo Temperatura Precipitação Vento Pressão Humidade
    00:00 +14°C° 0 mm 1 m/s 744 mmHg 86%
    01:00 +14°C° 0 mm 1 m/s 744 mmHg 87%
    02:00 +14°C° 0 mm 1 m/s 744 mmHg 87%
    03:00 +14°C° 0 mm 1 m/s 744 mmHg 87%
    04:00 +14°C° 0 mm 1 m/s 744 mmHg 87%
    05:00 +14°C° 0 mm 1 m/s 744 mmHg 88%
    06:00 +16°C° 0.1 mm 1 m/s 744 mmHg 83%
    07:00 +19°C° 0.1 mm 1 m/s 744 mmHg 79%
    08:00 +19°C° 0 mm 2 m/s 745 mmHg 76%
    09:00 +20°C° 0.5 mm 2 m/s 745 mmHg 72%
    10:00 +21°C° 0.5 mm 3 m/s 745 mmHg 67%
    11:00 +22°C° 0.5 mm 3 m/s 745 mmHg 63%
    12:00 +22°C° 0.4 mm 3 m/s 745 mmHg 64%
    13:00 +22°C° 0.4 mm 4 m/s 745 mmHg 66%
    14:00 +23°C° 0.4 mm 4 m/s 745 mmHg 68%
    15:00 +22°C° 0.4 mm 4 m/s 745 mmHg 70%
    16:00 +22°C° 0.4 mm 4 m/s 745 mmHg 72%
    17:00 +21°C° 0.4 mm 4 m/s 745 mmHg 74%
    18:00 +20°C° 0 mm 4 m/s 745 mmHg 78%
    19:00 +18°C° 0 mm 4 m/s 745 mmHg 83%
    20:00 +17°C° 0 mm 4 m/s 745 mmHg 88%
    21:00 +14°C° 0 mm 4 m/s 745 mmHg 89%
    22:00 +13°C° 0 mm 4 m/s 746 mmHg 91%
    23:00 +12°C° 0 mm 4 m/s 746 mmHg 93%

    Amanhã, 24 Maio, Sexta-feira

    Tempo Temperatura Precipitação Vento Pressão Humidade
    00:00 +11°C° 0 mm 4 m/s 746 mmHg 93%
    01:00 +11°C° 0 mm 4 m/s 746 mmHg 94%
    02:00 +10°C° 0 mm 4 m/s 746 mmHg 94%
    03:00 +10°C° 0 mm 4 m/s 746 mmHg 93%
    04:00 +10°C° 0 mm 3 m/s 746 mmHg 92%
    05:00 +10°C° 0 mm 3 m/s 746 mmHg 92%
    06:00 +11°C° 0 mm 3 m/s 746 mmHg 88%
    07:00 +12°C° 0 mm 3 m/s 746 mmHg 85%
    08:00 +13°C° 0 mm 3 m/s 747 mmHg 81%
    09:00 +16°C° 0 mm 3 m/s 746 mmHg 77%
    10:00 +18°C° 0 mm 3 m/s 746 mmHg 73%
    11:00 +19°C° 0 mm 3 m/s 746 mmHg 69%
    12:00 +20°C° 0 mm 4 m/s 746 mmHg 69%
    13:00 +20°C° 0 mm 4 m/s 746 mmHg 69%
    14:00 +20°C° 0 mm 4 m/s 746 mmHg 70%
    15:00 +20°C° 0.1 mm 4 m/s 746 mmHg 69%
    16:00 +20°C° 0.1 mm 4 m/s 745 mmHg 69%
    17:00 +20°C° 0.1 mm 4 m/s 745 mmHg 68%
    18:00 +18°C° 0 mm 4 m/s 745 mmHg 72%
    19:00 +17°C° 0 mm 4 m/s 745 mmHg 75%
    20:00 +14°C° 0 mm 3 m/s 745 mmHg 78%
    21:00 +13°C° 0 mm 3 m/s 745 mmHg 80%
    22:00 +12°C° 0 mm 3 m/s 745 mmHg 81%
    23:00 +11°C° 0 mm 3 m/s 745 mmHg 83%

    Depois de amanhã, 25 Maio, Sábado

    Tempo Temperatura Precipitação Vento Pressão Humidade
    00:00 +10°C° 0 mm 2 m/s 745 mmHg 82%
    01:00 +10°C° 0 mm 2 m/s 745 mmHg 80%
    02:00 +10°C° 0 mm 2 m/s 745 mmHg 78%
    03:00 +11°C° 0 mm 1 m/s 745 mmHg 78%
    04:00 +10°C° 0 mm 1 m/s 745 mmHg 79%
    05:00 +10°C° 0 mm 1 m/s 744 mmHg 79%
    06:00 +12°C° 0 mm 2 m/s 744 mmHg 74%
    07:00 +14°C° 0 mm 2 m/s 744 mmHg 69%
    08:00 +16°C° 0 mm 3 m/s 744 mmHg 64%
    09:00 +17°C° 0 mm 3 m/s 744 mmHg 62%
    10:00 +19°C° 0 mm 4 m/s 744 mmHg 61%
    11:00 +20°C° 0 mm 5 m/s 744 mmHg 59%
    12:00 +20°C° 0.2 mm 5 m/s 744 mmHg 62%
    13:00 +20°C° 0.2 mm 5 m/s 744 mmHg 64%
    14:00 +20°C° 0.2 mm 6 m/s 744 mmHg 66%
    15:00 +19°C° 0.1 mm 6 m/s 743 mmHg 66%
    16:00 +17°C° 0.1 mm 6 m/s 743 mmHg 66%
    17:00 +17°C° 0.1 mm 6 m/s 743 mmHg 67%
    18:00 +15°C° 0 mm 5 m/s 743 mmHg 72%
    19:00 +13°C° 0 mm 4 m/s 744 mmHg 77%
    20:00 +12°C° 0 mm 3 m/s 744 mmHg 83%
    21:00 +10°C° 0 mm 3 m/s 744 mmHg 87%
    22:00 +9°C° 0 mm 2 m/s 744 mmHg 91%
    23:00 +8°C° 0 mm 2 m/s 744 mmHg 95%

    26 Maio, Domingo

    Tempo Temperatura Precipitação Vento Pressão Humidade
    00:00 +8°C° 0 mm 2 m/s 744 mmHg 95%
    01:00 +8°C° 0 mm 3 m/s 744 mmHg 96%
    02:00 +8°C° 0 mm 3 m/s 744 mmHg 96%
    03:00 +8°C° 0 mm 3 m/s 744 mmHg 96%
    04:00 +8°C° 0 mm 3 m/s 744 mmHg 96%
    05:00 +7°C° 0 mm 4 m/s 744 mmHg 96%
    06:00 +8°C° 0 mm 4 m/s 744 mmHg 89%
    07:00 +11°C° 0 mm 4 m/s 744 mmHg 82%
    08:00 +13°C° 0 mm 4 m/s 743 mmHg 76%
    09:00 +13°C° 0.1 mm 5 m/s 743 mmHg 78%
    10:00 +13°C° 0.1 mm 5 m/s 743 mmHg 80%
    11:00 +13°C° 0.1 mm 5 m/s 743 mmHg 82%
    12:00 +13°C° 0.3 mm 5 m/s 743 mmHg 80%
    13:00 +13°C° 0.3 mm 6 m/s 743 mmHg 78%
    14:00 +14°C° 0.3 mm 6 m/s 743 mmHg 77%
    15:00 +13°C° 0.2 mm 6 m/s 743 mmHg 77%
    16:00 +13°C° 0.2 mm 6 m/s 743 mmHg 77%
    17:00 +13°C° 0.2 mm 6 m/s 743 mmHg 77%
    18:00 +12°C° 0 mm 5 m/s 743 mmHg 79%
    19:00 +12°C° 0 mm 4 m/s 743 mmHg 81%
    20:00 +11°C° 0 mm 3 m/s 743 mmHg 83%
    21:00 +11°C° 0 mm 4 m/s 743 mmHg 85%
    22:00 +11°C° 0 mm 4 m/s 743 mmHg 86%
    23:00 +10°C° 0 mm 4 m/s 743 mmHg 88%

    27 Maio, Segunda-feira

    Tempo Temperatura Precipitação Vento Pressão Humidade
    00:00 +10°C° 0 mm 4 m/s 743 mmHg 90%
    01:00 +9°C° 0 mm 3 m/s 743 mmHg 92%
    02:00 +8°C° 0 mm 3 m/s 744 mmHg 94%
    03:00 +8°C° 0 mm 3 m/s 744 mmHg 95%
    04:00 +8°C° 0 mm 3 m/s 744 mmHg 96%
    05:00 +7°C° 0 mm 3 m/s 744 mmHg 97%
    06:00 +9°C° 0 mm 3 m/s 744 mmHg 90%
    07:00 +11°C° 0 mm 4 m/s 744 mmHg 84%
    08:00 +13°C° 0 mm 4 m/s 745 mmHg 77%
    09:00 +14°C° 0 mm 4 m/s 745 mmHg 73%
    10:00 +15°C° 0 mm 4 m/s 745 mmHg 69%
    11:00 +18°C° 0 mm 4 m/s 745 mmHg 65%
    12:00 +18°C° 0 mm 4 m/s 745 mmHg 67%
    13:00 +18°C° 0 mm 4 m/s 745 mmHg 69%
    14:00 +18°C° 0 mm 3 m/s 744 mmHg 71%
    15:00 +19°C° 0 mm 3 m/s 744 mmHg 70%
    16:00 +20°C° 0 mm 3 m/s 744 mmHg 69%
    17:00 +20°C° 0 mm 3 m/s 744 mmHg 68%
    18:00 +20°C° 0 mm 3 m/s 744 mmHg 73%
    19:00 +19°C° 0 mm 3 m/s 744 mmHg 79%
    20:00 +18°C° 0 mm 2 m/s 743 mmHg 84%
    21:00 +17°C° 0 mm 3 m/s 743 mmHg 87%
    22:00 +16°C° 0 mm 3 m/s 743 mmHg 90%
    23:00 +14°C° 0 mm 3 m/s 743 mmHg 93%

    28 Maio, Terça-feira

    Tempo Temperatura Precipitação Vento Pressão Humidade
    00:00 +14°C° 0 mm 3 m/s 743 mmHg 93%
    01:00 +14°C° 0 mm 3 m/s 743 mmHg 92%
    02:00 +14°C° 0 mm 3 m/s 742 mmHg 92%
    03:00 +14°C° 0.2 mm 4 m/s 742 mmHg 92%
    04:00 +14°C° 0.2 mm 4 m/s 741 mmHg 93%
    05:00 +14°C° 0.2 mm 4 m/s 741 mmHg 93%
    06:00 +14°C° 1.2 mm 4 m/s 740 mmHg 94%
    07:00 +14°C° 1.2 mm 4 m/s 740 mmHg 95%
    08:00 +14°C° 1.2 mm 4 m/s 739 mmHg 97%
    09:00 +17°C° 0.5 mm 4 m/s 739 mmHg 93%
    10:00 +19°C° 0.5 mm 5 m/s 739 mmHg 90%
    11:00 +20°C° 0.5 mm 5 m/s 738 mmHg 86%
    12:00 +21°C° 0.4 mm 6 m/s 738 mmHg 81%
    13:00 +22°C° 0.4 mm 6 m/s 738 mmHg 75%
    14:00 +24°C° 0.4 mm 7 m/s 738 mmHg 70%
    15:00 +23°C° 0.5 mm 7 m/s 738 mmHg 72%
    16:00 +22°C° 0.5 mm 6 m/s 738 mmHg 75%
    17:00 +22°C° 0.5 mm 5 m/s 738 mmHg 77%
    18:00 +21°C° 0.4 mm 5 m/s 738 mmHg 82%
    19:00 +19°C° 0.4 mm 4 m/s 739 mmHg 87%
    20:00 +18°C° 0.4 mm 4 m/s 739 mmHg 92%
    21:00 +17°C° 0 mm 4 m/s 740 mmHg 93%
    22:00 +15°C° 0 mm 4 m/s 740 mmHg 94%
    23:00 +13°C° 0 mm 4 m/s 741 mmHg 95%
    Mostrar mais